Weather History for KCLM - March, 2013

Change the Weather History Date:

Monday, March 4, 2013

  Actual Average (WUND) Record (WUND)
Temperature  
Mean Temperature 38 °F -  
Max Temperature 45 °F - - (-1)
Min Temperature 30 °F - - (-1)
Degree Days  
Heating Degree Days 28    
Moisture  
Dew Point 32 °F    
Average Humidity 79    
Maximum Humidity 92    
Minimum Humidity 63    
Precipitation  
Precipitation 0.00 in - - ()
Sea Level Pressure  
Sea Level Pressure 30.17 in    
Wind  
Wind Speed 6 mph (ESE)    
Max Wind Speed 10 mph    
Max Gust Speed -    
Visibility 10 miles    
Events      
Averages and records for this station are not official NWS values.
T = Trace of Precipitation, MM = Missing Value Source: NWS Daily Summary

Daily Weather History Graph

Daily Weather History Graph

Search for Another Location

Airport or City:

Trip Planner

Search our weather history database for the weather conditions in past years. The results will help you decide how hot, cold, wet, or windy it might be!

Date:

Astronomy

Mar. 04, 2013 Rise Set
Actual Time 6:48 AM PST 6:03 PM PST
Civil Twilight 6:17 AM PST 6:34 PM PST
Nautical Twilight 5:41 AM PST 7:10 PM PST
Astronomical Twilight 5:05 AM PST 7:46 PM PST
Moon 1:23 AM PST (3/4) 10:30 AM PST (3/4)
Length of Visible Light 12h 17m
Length of Day
11h 14m
Waning Gibbous, 51% of the Moon is Illuminated
Mar 4
Waning Gibbous
Mar 4
Last Quarter
Mar 11
New
Mar 19
First Quarter
Mar 27
Full

Hourly Weather History & Observations

Time (PST) Temp. Windchill Dew Point Humidity Pressure Visibility Wind Dir Wind Speed Gust Speed Precip Events Conditions
12:53 AM 34.0 °F 27.2 °F 30.0 °F 85% 30.31 in 10.0 mi WSW 8.1 mph - N/A   Clear
1:53 AM 33.1 °F 26.9 °F 28.9 °F 85% 30.30 in 10.0 mi SW 6.9 mph - N/A   Clear
2:53 AM 30.0 °F - 27.0 °F 88% 30.30 in 10.0 mi North - - N/A   Clear
3:53 AM 32.0 °F - 28.0 °F 85% 30.29 in 10.0 mi North - - N/A   Clear
4:53 AM 30.9 °F - 27.0 °F 85% 30.29 in 10.0 mi North - - N/A   Clear
5:53 AM 30.9 °F - 28.9 °F 92% 30.27 in 10.0 mi North - - N/A   Clear
6:53 AM 30.0 °F - 28.0 °F 92% 30.26 in 10.0 mi North - - N/A   Scattered Clouds
7:11 AM 34.0 °F - 28.9 °F 82% 30.25 in 10.0 mi North - - N/A   Mostly Cloudy
7:53 AM 35.1 °F 31.0 °F 30.9 °F 85% 30.26 in 10.0 mi SW 4.6 mph - N/A   Overcast
8:49 AM 37.4 °F - 32.0 °F 81% 30.24 in 10.0 mi Calm Calm - N/A   Overcast
8:53 AM 37.9 °F - 32.0 °F 79% 30.25 in 10.0 mi Calm Calm - N/A   Overcast
9:49 AM 42.8 °F 38.6 °F 35.6 °F 76% 30.23 in 10.0 mi East 6.9 mph - N/A   Overcast
9:53 AM 42.1 °F 38.4 °F 36.0 °F 79% 30.24 in 10.0 mi East 5.8 mph - N/A   Overcast
10:27 AM 45.0 °F 41.2 °F 35.1 °F 68% 30.22 in 10.0 mi East 6.9 mph - N/A   Partly Cloudy
10:53 AM 43.0 °F 37.2 °F 33.1 °F 68% 30.22 in 10.0 mi East 10.4 mph - N/A   Clear
11:25 AM 44.1 °F 40.1 °F 34.0 °F 68% 30.20 in 10.0 mi Variable 6.9 mph - N/A   Mostly Cloudy
11:37 AM 45.0 °F 41.2 °F 36.0 °F 71% 30.19 in 10.0 mi Variable 6.9 mph - N/A   Scattered Clouds
11:53 AM 43.0 °F 38.8 °F 35.1 °F 74% 30.20 in 10.0 mi ENE 6.9 mph - N/A   Scattered Clouds
12:06 PM 43.0 °F 37.7 °F 35.1 °F 74% 30.19 in 10.0 mi East 9.2 mph - N/A   Mostly Cloudy
12:53 PM 42.1 °F 36.1 °F 34.0 °F 73% 30.17 in 10.0 mi East 10.4 mph - N/A   Overcast
1:53 PM 43.0 °F 37.2 °F 35.1 °F 74% 30.14 in 10.0 mi East 10.4 mph - N/A   Overcast
2:13 PM 44.1 °F 39.5 °F 34.0 °F 68% 30.12 in 10.0 mi ENE 8.1 mph - N/A   Scattered Clouds
2:53 PM 45.0 °F 40.6 °F 35.1 °F 68% 30.11 in 10.0 mi East 8.1 mph - N/A   Clear
3:53 PM 45.0 °F 40.1 °F 33.1 °F 63% 30.07 in 10.0 mi East 9.2 mph - N/A   Clear
4:53 PM 44.1 °F 39.5 °F 34.0 °F 68% 30.05 in 10.0 mi East 8.1 mph - N/A   Clear
5:53 PM 42.1 °F 40.2 °F 35.1 °F 76% 30.04 in 10.0 mi ENE 3.5 mph - N/A   Clear
6:53 PM 37.9 °F - 33.1 °F 83% 30.02 in 10.0 mi Calm Calm - N/A   Clear
7:53 PM 33.1 °F - 30.0 °F 89% 30.00 in 10.0 mi Calm Calm - N/A   Clear
8:53 PM 35.1 °F 30.1 °F 32.0 °F 89% 30.00 in 10.0 mi SW 5.8 mph - N/A   Clear
9:53 PM 33.1 °F - 30.9 °F 92% 29.99 in 10.0 mi Calm Calm - N/A   Clear
11:53 PM 36.0 °F 29.6 °F 32.0 °F 86% 29.95 in 10.0 mi SW 8.1 mph - N/A   Clear